FENGYUN 1C DEB

Satellite information

Favourite Embed

Satellite Type and Status

DEBRISIN ORBIT

Key statistics

Satellite FENGYUN 1C DEB at a glance.

Uptime

9662

Days in orbit

Revolutions

≈ 14.6

Per day

Orbit

SSO

Sun Synchronous Orbit

Inclination

99.5

Latest

Satellite identification and parameters

Extended collection of information and parameters for FENGYUN 1C DEB.

Object identification

Identified? True

Debris? True

Object name: FENGYUN 1C DEB

International designator: 1999-025CTG

Object number (NORAD): 32162

Object ID (CCSDS): 32162

Country: PEOPLES REPUBLIC OF CHINA (PRC)

Current information (Y/N): Y

RCS size: SMALL

Orbital parameters

Period: 98.563 minutes

Inclination: 99.4703 deg

SMA: 7068.103 km

Apoapsis: 723.728 km

Periapsis: 656.208 km

RAAN: 330.2646 deg

Eccentricy: 0.0047764

Argument of periapsis: 334.2738 deg

Mean anomaly: 25.6083 deg

Mean motion: 14.60994003 rev/day

Mean motion (dot): 0.00012426 rev/day2

B* drag term: 0.002501394 1/REarth

Two-line elements (TLE)

Creation date: Oct. 20, 2025, 2:10 a.m.

Reference frame: TEME

Reference center: EARTH

Epoch: Oct. 19, 2025, 8:10 p.m. UTC

TLE line 0: 0 FENGYUN 1C DEB

TLE line 1: 1 32162U 99025CTG 25292.84053700 .00012426 00000-0 25014-2 0 9995

TLE line 2: 2 32162 99.4703 330.2646 0047764 334.2738 25.6083 14.60994003941318

Live tracking on map

Real-time ground track for satellite FENGYUN 1C DEB.

In-orbit conjunctions

A list of the most updated potential collisions computed for object FENGYUN 1C DEB.

Target Orbit TCA Probability of collision Miss distance Type
COSMOS 2251 DEB LEO 2025-08-09 13:47:55 0.0001191407 121.0 (m) DEBRIS
CZ-4 DEB SSO 2024-09-26 02:12:06 0.0001540865 914.0 (m) DEBRIS

Associated space launch

Chinese polar orbiting meteorological satellite

FENGYUN 1C DEB was lifted into orbit during the mission ‘Long March 4B | Feng Yun 1C’, on board a Long March 4B space rocket.

The launch took place on May 10, 1999, 1:33 a.m. from Launch Complex 7.

For more information about the launch, click the button.

Launch to space Long March 4B | Feng Yun 1C
Long March 4B | Feng Yun 1C

Agency: N/A

Status: Launch Successful

Launch date: May 10, 1999, 1:33 a.m. UTC

Rocket: Long March 4B

Launch pad: Launch Complex 7

Location: Taiyuan Satellite Launch Center, People's Republic of China

...

Latest news about this satellite

There are no fresh news available about this satellite. Check back as we update our databases every day.


Newsletter sign-up

Weekly statistics, charts and insights to help you stay on top of the space industry.